Wind_Speed
29 29 29 28 27 26 26 26 26 26 25 25 24 24 26 27 28 28 29 31 31 30 29 27 27 28 29 30 30 30 29 29 31 32 33 32 31 31 31 32 33 34 34 33 33 32 32 31 31 31 31 31 31 30 29 29 29 29 29 28 27 26 24 24 24 24 24 24 24
29 29 29 28 27 26 25 26 26 26 25 24 25 25 26 27 28 28 29 30 31 30 28 26 25 26 29 31 31 30 30 30 32 33 34 33 33 32 31 33 33 33 33 33 33 32 32 31 31 31 30 30 30 29 29 28 28 28 28 28 27 26 25 24 23 23 22 22 22
28 29 29 27 26 26 25 25 26 25 25 24 24 25 25 26 27 28 28 29 29 28 26 24 23 25 29 31 31 30 30 31 32 34 34 34 33 32 31 32 33 33 33 33 33 32 32 32 31 31 30 30 30 29 29 28 27 27 27 27 27 27 26 25 24 23 22 21 21
28 28 28 27 26 27 27 26 26 26 26 25 24 24 25 25 26 27 28 28 28 27 25 24 23 24 28 31 32 31 30 31 32 33 34 34 32 31 31 32 32 32 32 32 32 32 32 32 31 31 30 30 30 30 29 28 27 26 26 26 27 27 27 27 26 25 23 22 22
28 28 27 26 27 27 28 28 28 27 26 25 24 24 24 25 26 27 28 27 27 26 25 24 23 24 27 31 31 31 30 30 31 31 33 33 32 31 31 31 32 32 32 32 32 32 32 31 31 30 30 30 30 30 29 28 27 27 26 26 26 26 27 27 27 26 25 24 23
28 27 26 26 27 28 28 28 28 27 26 25 25 24 23 24 26 27 28 27 27 26 26 24 23 24 26 28 29 30 30 30 30 31 33 33 32 32 31 31 32 32 32 32 32 32 31 30 30 29 29 30 29 29 29 28 28 27 27 26 26 26 27 27 27 27 26 26 25
28 27 27 26 27 27 27 27 27 26 25 25 25 24 24 25 26 28 28 28 28 27 26 25 24 24 25 25 26 27 28 29 30 32 34 33 33 32 32 32 32 32 32 32 32 31 30 29 29 29 28 29 28 28 28 28 28 28 27 27 27 27 27 26 26 26 26 27 27
28 28 27 27 27 28 28 27 26 25 24 24 25 25 25 26 28 29 29 29 28 27 26 25 24 25 25 25 24 25 27 29 31 33 34 34 34 33 32 32 32 32 32 32 31 30 29 29 28 28 28 28 27 27 28 28 28 28 28 28 27 27 27 26 26 26 26 27 28
26 27 27 27 28 28 27 26 25 24 23 23 25 25 26 27 29 30 30 29 28 27 26 24 25 26 27 27 25 25 27 30 32 33 34 34 34 33 32 32 32 32 31 31 30 29 29 28 28 27 27 27 27 27 27 28 28 28 28 28 27 27 27 27 26 26 27 27 28
25 26 27 26 26 26 26 25 24 23 23 24 25 25 26 28 29 30 30 29 28 26 24 24 24 26 27 28 26 26 28 30 32 32 33 34 34 33 32 31 31 31 30 29 29 28 28 28 27 27 27 27 27 27 27 27 28 28 28 28 27 27 27 27 27 27 27 27 28
25 26 26 25 25 25 25 24 23 23 24 25 25 25 26 28 29 30 29 29 27 25 24 23 24 25 27 27 27 27 28 29 30 32 33 33 33 33 32 31 31 30 30 29 28 28 28 27 27 27 27 27 27 27 27 28 28 28 28 28 27 27 27 27 27 27 27 28 29
25 26 25 25 25 25 25 24 23 24 24 25 26 26 27 28 29 29 29 28 26 24 23 23 24 25 26 27 28 28 27 28 30 31 32 32 32 32 31 31 30 29 28 27 27 27 28 28 28 28 28 28 27 27 27 28 29 29 29 28 27 26 26 27 27 27 27 28 29
25 25 25 25 25 26 25 24 24 24 25 26 26 26 26 27 29 30 29 28 26 24 23 23 23 25 26 27 28 27 27 28 29 30 30 31 31 31 30 29 28 27 25 25 26 28 29 28 28 29 29 28 28 28 28 29 29 29 29 28 27 26 26 27 28 28 28 28 29
25 25 25 25 26 26 25 24 24 24 25 25 25 24 24 26 28 29 29 28 27 25 23 23 24 26 27 28 27 27 27 27 28 28 29 29 29 29 28 27 26 24 24 26 28 29 30 29 29 29 29 29 29 28 28 28 29 29 28 28 27 27 27 28 28 28 29 29 29
24 24 25 26 26 25 24 24 24 24 25 25 24 23 22 24 27 28 29 29 28 26 25 25 26 27 29 30 28 28 28 27 27 27 27 27 27 27 27 25 24 24 26 28 29 30 30 30 30 29 29 29 29 28 28 28 28 28 28 28 28 28 28 28 28 29 29 29 30
24 25 25 26 25 24 24 24 24 25 26 25 23 21 21 24 26 28 29 30 30 29 28 28 28 29 30 31 30 29 28 27 27 27 27 27 26 26 25 25 25 26 28 29 29 30 30 30 30 29 29 29 28 28 27 27 28 28 28 29 29 29 29 29 29 29 29 30 30
25 25 26 26 25 24 24 24 24 25 26 25 23 20 19 23 27 29 31 32 31 30 30 30 30 30 31 31 30 30 29 28 28 27 27 27 26 26 25 26 27 28 29 30 30 30 30 30 29 29 28 28 28 27 27 27 28 29 29 29 30 30 30 29 29 29 29 29 30
25 26 26 27 27 26 25 25 25 26 26 25 22 18 17 21 26 30 32 32 32 31 31 31 31 30 30 30 30 30 29 29 29 28 28 27 26 26 26 28 29 30 30 31 31 30 30 29 29 28 28 28 27 27 27 28 28 29 30 30 30 30 30 29 29 29 29 29 29
26 26 27 27 27 26 25 26 27 27 26 25 21 18 16 18 25 30 31 32 31 31 31 31 30 29 30 30 30 30 31 31 30 29 28 26 26 27 28 30 30 31 31 31 31 31 30 29 29 28 28 28 28 28 28 28 29 29 30 30 30 30 30 29 29 29 28 28 28
26 26 26 27 27 26 26 27 27 27 26 24 21 17 16 18 24 28 30 31 30 31 31 30 29 29 30 31 32 32 32 32 31 29 28 28 28 29 31 32 32 32 32 31 31 30 29 29 29 28 28 28 28 28 28 29 29 29 29 30 30 30 30 29 29 28 28 28 27
26 26 26 26 26 26 27 27 27 26 25 23 20 18 17 18 23 27 29 29 29 30 31 30 30 31 32 33 33 33 33 32 30 29 29 30 32 33 33 33 33 32 32 31 30 30 30 30 29 29 29 29 29 29 29 29 29 29 29 29 30 29 29 29 29 28 28 28 27
25 25 25 26 25 25 25 26 26 26 25 22 20 19 18 19 22 25 27 28 29 30 31 32 32 33 34 35 35 34 33 31 30 30 31 33 34 34 33 32 32 31 31 31 31 31 31 30 30 29 29 29 29 29 30 30 30 30 30 30 29 29 29 28 28 28 28 27 25
24 24 25 25 24 24 24 25 25 25 23 22 20 20 19 20 22 24 26 27 29 30 31 32 33 34 34 35 34 33 32 30 30 32 33 33 33 32 32 31 31 31 31 31 31 30 30 30 30 30 30 30 30 30 31 31 31 31 31 30 29 28 28 27 26 26 25 24 21
23 23 23 23 23 23 23 23 23 23 22 21 21 21 21 22 23 24 26 28 29 30 30 30 31 32 33 33 32 32 31 30 31 32 32 31 31 30 31 31 31 31 31 31 30 30 30 30 30 31 31 31 31 32 32 33 33 33 32 31 30 28 26 24 22 21 20 18 16
23 23 23 22 23 23 22 23 23 23 23 23 23 24 25 24 24 25 27 28 28 29 30 30 30 31 31 31 31 31 31 31 32 32 31 30 30 30 31 31 30 30 30 29 29 29 29 30 31 31 32 32 33 33 34 34 34 34 33 32 30 27 24 20 18 16 15 13 11
23 24 24 23 23 23 23 24 24 25 25 25 27 28 28 26 25 26 27 28 28 29 30 30 30 30 31 31 31 31 31 32 32 31 30 30 30 30 29 29 28 27 26 26 27 28 29 30 31 32 32 33 33 34 34 33 32 31 30 28 25 22 19 16 14 13 12 10 9
25 25 25 25 25 25 25 26 26 27 27 28 29 30 29 28 27 27 28 28 28 29 30 30 30 30 31 31 31 31 31 31 31 30 30 30 29 29 28 27 25 23 23 24 26 28 29 30 31 32 32 32 32 31 28 25 23 21 19 17 16 15 14 14 13 12 11 10 9
26 26 27 27 27 27 28 28 28 28 29 29 30 31 31 31 30 29 29 28 28 28 28 28 29 30 30 30 29 29 29 30 30 30 30 30 29 28 27 25 23 21 22 25 26 28 28 29 29 29 29 28 25 21 18 16 16 15 15 15 15 15 15 15 14 13 11 10 8
27 27 28 28 28 28 29 29 29 30 30 30 31 33 33 33 32 30 29 28 27 26 26 27 28 28 27 27 26 27 27 28 28 29 29 29 28 26 23 19 19 20 22 25 26 26 26 24 23 22 22 21 20 19 19 19 19 18 18 17 16 16 15 15 15 14 12 10 8
28 28 28 28 28 28 29 29 30 30 30 31 32 33 33 33 31 30 28 26 26 26 26 27 26 26 25 25 25 26 26 26 27 27 27 25 22 19 18 17 18 19 21 24 24 22 20 18 18 19 20 21 22 22 21 21 20 19 18 17 16 15 15 14 13 12 11 9 7
29 29 29 29 28 28 29 29 30 30 31 30 31 31 31 31 30 29 27 26 26 26 26 26 26 25 25 26 26 26 25 25 23 21 19 18 15 14 14 15 15 16 19 19 18 16 17 19 20 21 22 23 23 23 22 21 20 19 18 17 15 14 14 13 12 11 10 9 7
29 30 30 30 29 29 29 29 30 30 30 30 30 30 30 30 30 29 28 27 27 27 27 26 25 24 23 23 21 19 17 14 13 12 12 12 13 13 12 11 11 12 12 12 13 16 19 22 23 24 24 24 24 23 22 21 20 19 19 18 17 16 15 14 14 13 12 11 11
30 31 31 31 30 30 30 30 30 30 31 31 31 31 31 31 31 30 29 26 24 21 20 19 18 16 16 15 13 11 8 8 8 9 11 12 13 11 10 9 8 9 10 13 16 20 23 25 26 26 26 26 25 24 23 23 23 22 22 22 21 21 21 20 19 19 18 17 17
31 32 32 32 31 31 31 31 31 31 31 31 31 31 31 31 31 28 24 20 16 14 14 13 14 14 14 14 13 12 12 12 13 14 14 14 13 12 11 12 13 15 16 18 21 24 26 27 27 27 27 27 26 26 26 26 25 25 26 26 26 26 26 25 25 25 24 24 24
32 33 33 32 32 32 32 32 31 31 31 31 31 31 31 30 28 22 17 15 15 15 15 15 14 15 15 15 15 15 16 17 18 18 17 16 16 16 16 17 19 19 20 21 23 25 27 28 28 28 28 28 28 28 28 29 29 29 30 30 30 30 29 29 29 29 28 28 27
32 33 33 33 33 33 33 33 32 32 32 31 31 31 30 27 21 18 18 18 19 19 18 17 16 16 16 18 19 20 20 21 21 21 20 19 19 20 22 23 23 21 20 21 22 24 25 26 27 28 28 29 29 30 30 31 32 33 33 34 34 34 33 33 32 32 30 29 29
32 33 33 33 33 33 33 34 33 33 33 33 32 31 27 22 20 20 21 22 23 22 22 21 21 22 23 23 23 22 21 20 21 22 23 22 21 22 24 26 24 22 20 19 20 21 22 23 24 24 26 28 29 30 32 33 34 35 36 36 36 35 35 35 34 33 32 31 30
32 32 33 32 32 33 34 35 35 35 34 34 31 26 22 22 24 25 25 25 26 26 26 25 26 26 25 25 26 25 23 22 22 24 26 27 26 26 27 28 26 24 21 20 20 20 20 20 21 22 24 27 30 31 33 34 36 36 36 36 35 35 35 35 35 34 33 32 31
32 32 33 33 32 33 33 34 35 34 32 28 23 21 24 27 28 28 27 27 27 27 28 27 26 26 27 29 31 33 32 31 30 30 31 32 31 30 30 30 28 26 23 22 22 22 22 22 22 23 24 27 30 32 33 35 37 37 36 35 34 34 34 35 35 35 34 33 31
32 33 33 32 32 32 31 31 30 27 24 22 22 25 29 31 31 31 30 29 29 29 29 29 29 31 34 35 36 37 37 36 35 34 34 34 33 32 32 32 30 28 26 25 25 25 25 25 26 26 27 29 31 32 34 35 36 35 34 33 32 32 32 33 33 34 34 33 32
32 32 32 31 30 28 26 24 22 21 22 25 27 30 32 33 33 33 32 31 30 30 31 32 34 36 37 37 38 38 39 38 37 36 35 35 34 34 33 33 32 30 28 27 27 28 28 29 29 30 31 32 32 33 33 34 34 33 32 30 30 30 30 30 31 32 33 33 32
Wind_Direction
151 153 154 155 155 155 154 155 157 158 158 158 157 156 155 156 156 157 159 161 163 165 165 166 169 172 173 173 173 172 171 172 174 176 177 178 181 182 178 170 166 165 166 167 169 170 172 174 175 176 178 180 182 184 185 187 188 189 190 192 193 195 196 198 201 204 208 211 214
151 153 154 153 153 152 151 152 154 155 156 156 157 156 155 154 154 155 158 161 164 166 166 167 171 174 174 173 172 172 171 172 174 175 176 177 180 178 173 168 166 166 166 168 169 171 173 175 176 176 178 180 182 184 185 187 188 190 191 194 195 197 198 199 202 205 208 211 214
150 153 155 154 151 150 149 150 151 152 153 154 154 153 152 152 152 153 155 159 162 164 164 166 171 174 174 172 171 172 172 173 173 173 175 177 177 173 169 166 165 166 167 169 171 172 174 176 177 178 179 180 182 184 185 188 190 191 194 196 198 200 201 202 204 206 208 210 214
149 152 154 154 152 150 150 150 151 151 151 151 151 151 150 149 150 151 153 156 159 160 162 165 169 173 172 170 170 171 172 172 172 173 174 176 173 169 166 165 165 167 169 171 173 174 176 177 178 179 180 182 183 185 187 189 191 194 197 200 202 203 205 206 207 208 209 211 214
149 152 153 152 151 151 150 150 150 150 151 151 150 151 150 148 149 150 152 153 156 158 160 162 167 170 170 169 169 170 171 171 171 173 175 175 171 167 166 166 167 168 170 173 174 176 177 178 180 181 183 184 186 188 190 192 194 197 200 203 205 206 208 210 210 211 211 213 215
149 151 152 152 150 150 149 150 150 150 151 151 152 151 150 149 150 151 152 153 155 157 158 160 164 167 168 168 167 167 168 168 171 175 177 174 170 168 167 167 168 170 172 174 176 177 178 179 181 183 185 187 189 191 194 195 197 199 201 203 206 208 210 212 213 213 214 215 217
151 152 152 152 150 149 148 149 150 151 151 153 154 154 153 153 153 153 154 154 155 156 157 159 162 163 164 164 163 163 165 168 173 177 177 173 170 168 168 168 169 171 172 174 176 177 179 181 182 184 186 189 190 193 195 198 199 200 202 204 207 210 211 213 214 215 216 218 219
150 152 153 152 150 149 149 149 150 151 153 156 158 158 157 156 156 156 156 156 156 156 157 159 160 160 159 159 159 161 165 170 175 177 175 171 170 169 169 169 170 171 173 175 176 178 180 183 185 186 188 190 192 194 197 199 201 202 204 206 209 211 213 214 216 217 218 220 221
148 150 152 152 151 151 151 151 152 154 156 159 161 161 159 158 159 159 158 157 157 157 158 158 159 158 157 157 159 162 168 172 175 174 172 170 169 169 168 169 170 171 173 175 177 179 182 185 187 189 190 192 194 196 198 200 202 204 207 209 211 213 214 216 217 219 220 222 223
146 148 149 150 152 153 154 155 157 159 160 161 161 160 160 161 161 161 160 160 159 159 158 158 157 156 157 158 162 167 171 173 172 170 169 169 168 168 168 168 170 171 173 175 178 181 184 187 189 191 193 195 196 198 199 201 203 206 209 211 212 214 215 217 219 220 222 224 225
147 148 149 149 151 153 155 157 159 161 160 159 158 158 160 162 163 163 163 162 161 161 159 157 156 157 159 161 167 172 173 171 168 167 167 167 168 168 168 169 171 172 174 177 180 184 188 190 192 193 195 197 199 200 201 202 204 207 210 212 213 215 216 218 220 222 224 225 227
149 149 149 149 150 151 152 153 154 154 154 153 154 156 159 162 164 165 165 164 164 162 160 158 158 160 164 168 173 176 174 169 166 165 165 166 167 168 169 170 172 174 176 180 185 189 191 193 195 196 197 199 200 201 202 203 205 207 210 212 214 216 218 220 222 224 226 227 229
151 151 150 149 149 149 149 148 148 147 148 148 151 154 157 161 164 166 166 166 166 165 163 163 164 166 171 176 179 178 174 170 167 165 165 166 167 168 169 171 173 176 180 186 191 194 196 197 198 198 199 200 201 203 204 204 205 207 209 212 214 217 220 222 224 226 227 229 230
154 153 151 150 150 149 148 146 146 147 147 149 150 153 157 161 165 166 168 168 168 168 168 169 171 174 178 181 183 180 175 172 169 166 166 166 167 169 170 172 175 180 187 193 196 198 199 199 201 201 201 202 203 204 205 205 206 208 211 214 216 219 222 225 226 227 228 229 231
156 155 155 154 153 151 150 149 149 150 152 153 154 156 159 162 165 168 169 170 171 171 172 175 178 181 182 184 183 180 176 173 171 168 167 167 169 170 171 174 180 187 193 197 199 200 202 203 203 204 204 204 205 206 206 207 209 211 215 218 220 223 225 227 228 228 228 229 231
159 159 159 159 157 155 154 153 154 155 156 158 159 161 164 166 168 169 170 171 172 174 177 180 182 183 184 184 182 179 176 174 173 171 170 170 171 173 176 180 186 192 196 198 200 202 205 206 207 207 207 207 208 208 209 211 213 216 219 221 223 225 227 229 229 229 229 230 232
163 163 163 164 162 160 159 158 158 160 161 163 165 168 171 171 170 170 171 172 174 177 180 182 183 183 183 182 180 178 175 174 174 174 174 175 176 178 183 188 193 197 199 201 203 205 207 209 209 209 209 210 211 212 214 216 218 220 222 224 225 227 228 230 230 230 231 232 233
167 166 167 168 167 166 163 162 162 164 166 167 169 173 176 176 172 171 172 173 175 178 179 180 180 180 179 178 178 176 175 175 176 178 179 180 183 187 192 196 200 202 204 205 206 208 209 210 211 211 212 213 215 217 219 220 222 223 225 226 227 228 229 230 231 232 232 234 235
170 170 170 171 171 169 167 165 166 167 169 170 171 174 179 179 173 172 172 174 176 177 176 175 176 176 176 176 176 175 176 177 179 181 183 187 192 197 201 203 205 207 208 208 209 210 211 212 213 214 215 216 218 220 222 223 225 226 227 228 229 230 230 231 232 233 235 236 238
172 172 172 172 173 172 170 168 167 168 170 172 172 175 179 178 173 171 172 174 175 176 176 173 173 174 175 175 175 176 177 180 182 184 188 193 199 204 207 208 208 209 209 209 210 211 213 214 216 217 218 220 221 222 224 225 226 227 229 230 231 232 233 234 235 235 236 237 238
172 172 171 172 172 172 171 168 167 168 170 172 173 175 177 177 173 172 172 173 175 175 175 172 172 173 173 173 174 176 179 181 183 186 191 197 204 208 210 210 209 209 210 211 212 214 216 217 219 220 221 223 224 225 225 226 227 228 230 231 233 234 235 236 237 237 237 237 238
170 170 169 170 169 169 167 166 166 168 170 171 173 175 177 177 174 172 172 173 175 175 174 172 172 172 172 173 175 177 180 182 185 189 195 201 207 210 211 210 210 210 211 213 215 217 219 221 222 223 224 225 226 227 228 228 228 229 230 232 233 235 236 237 238 238 237 236 236
167 167 167 167 166 164 163 164 165 167 169 171 173 175 176 177 174 172 173 174 176 176 174 173 172 172 173 175 177 178 180 182 186 193 199 204 207 209 210 210 211 211 213 215 217 219 221 223 225 226 227 228 229 230 230 231 231 231 231 232 233 234 235 236 236 235 233 231 229
164 164 165 165 164 163 163 163 165 167 170 172 174 174 175 174 173 173 174 176 177 177 175 174 174 175 176 177 179 181 182 185 190 196 201 205 206 208 209 210 210 212 214 216 218 221 223 225 226 228 229 229 230 231 232 233 233 232 232 232 231 232 232 232 230 227 223 219 214
165 165 165 165 165 165 165 166 167 170 171 172 172 172 172 174 175 175 177 179 179 179 178 178 179 179 180 182 184 185 187 190 194 198 201 204 205 207 208 208 210 212 214 218 221 223 226 228 229 230 230 230 231 232 233 234 234 234 233 232 230 228 225 221 215 209 203 197 188
167 167 166 167 167 168 169 169 170 171 172 171 171 172 174 178 180 181 181 182 182 182 182 183 183 184 185 187 189 191 193 196 199 201 202 204 206 207 208 210 211 214 217 221 225 227 229 230 231 232 232 232 233 233 233 234 234 233 231 228 223 218 209 198 188 179 173 164 161
169 169 169 170 171 172 173 173 173 174 173 173 173 175 178 183 186 186 187 187 186 186 185 185 185 187 190 192 194 195 197 199 201 203 204 206 208 210 211 213 216 219 221 224 227 230 232 233 234 235 235 235 234 232 230 227 224 219 212 204 195 185 175 165 155 147 143 143 150
171 172 173 174 175 176 176 176 177 178 178 177 177 179 183 188 190 191 191 191 189 187 186 186 188 190 193 196 197 199 200 202 204 205 207 209 211 213 216 218 219 222 225 228 229 232 234 236 237 237 235 231 225 215 202 189 178 169 162 156 151 149 146 142 137 132 130 131 139
173 175 176 177 179 180 180 180 181 181 182 182 182 184 187 190 193 193 193 192 190 189 189 189 191 194 196 199 201 202 204 206 207 208 209 211 213 214 214 215 217 221 226 229 231 233 233 233 231 227 221 210 194 178 166 157 151 146 141 138 135 135 134 131 128 125 123 121 121
176 177 179 180 181 182 183 183 184 184 185 186 187 189 191 193 194 194 193 192 192 192 193 194 195 198 200 203 205 206 208 209 210 211 211 211 210 209 209 213 218 222 225 227 229 228 223 214 206 199 193 186 175 164 156 151 147 142 137 132 130 128 126 123 120 120 120 118 114
178 179 180 182 183 184 186 186 186 187 188 189 191 192 193 194 194 194 193 193 193 195 197 199 201 203 206 208 210 212 212 213 213 214 212 207 201 199 202 208 215 221 224 224 219 209 195 186 182 180 178 174 167 159 152 147 141 136 130 126 123 121 119 116 114 114 115 117 112
181 181 181 183 184 186 187 188 188 188 189 191 192 193 194 195 195 194 194 195 196 198 200 202 203 205 207 209 209 209 209 208 207 204 199 192 187 187 190 195 204 209 209 203 190 179 174 172 172 172 170 168 159 151 143 137 130 125 120 115 114 113 112 111 109 108 107 108 105
183 182 182 184 185 186 187 188 188 188 189 190 192 193 194 195 196 196 197 197 196 195 192 190 187 186 185 185 179 172 162 152 149 153 160 166 169 168 163 161 153 149 152 157 161 164 165 166 166 165 164 160 150 140 132 126 118 112 107 103 102 102 102 102 102 100 99 97 96
183 182 183 184 185 186 187 188 188 188 189 190 191 193 194 195 197 197 195 190 182 171 161 153 149 147 147 149 147 141 134 132 132 133 138 145 149 144 132 119 114 118 129 142 151 157 158 159 158 158 155 149 138 128 121 115 109 103 98 95 93 93 93 93 93 92 92 91 90
182 182 182 184 184 185 186 186 187 188 189 190 192 193 195 196 195 188 176 163 157 152 147 144 141 139 136 132 142 135 125 124 124 124 125 128 129 122 113 110 109 116 128 138 146 150 151 150 150 149 145 136 126 119 113 108 103 99 95 92 89 88 87 87 87 88 88 88 88
181 181 182 183 184 184 185 185 186 188 190 191 193 195 195 193 182 166 153 148 146 142 137 135 136 134 126 117 118 117 113 112 111 111 111 112 112 109 106 105 108 116 125 134 139 142 143 143 143 141 136 128 120 114 110 105 101 97 94 91 88 85 84 84 84 84 84 85 85
181 181 182 182 183 184 184 185 186 188 190 192 194 195 191 178 157 147 147 144 139 134 129 125 120 116 111 106 104 104 106 107 107 104 101 103 106 105 104 102 105 111 120 127 132 135 137 138 138 137 132 124 118 113 109 104 101 97 93 89 86 84 82 81 79 78 78 79 80
182 183 183 184 184 185 185 186 187 188 190 192 192 187 172 152 141 140 142 140 135 128 122 117 111 108 106 103 100 101 103 104 106 102 98 97 101 103 102 100 101 106 114 122 126 129 131 133 134 134 130 123 118 114 109 105 101 96 92 89 86 84 81 79 77 75 73 73 74
185 185 186 186 186 186 187 187 188 188 188 185 173 156 143 140 135 135 136 137 133 126 120 115 109 107 107 104 99 97 96 96 96 96 94 92 95 98 99 97 97 101 109 116 121 124 126 127 128 128 126 122 118 114 110 105 101 97 93 90 87 84 82 79 77 75 72 71 71
187 188 188 188 188 188 188 187 186 182 173 158 140 131 131 133 131 130 130 129 126 122 117 113 110 106 103 101 98 94 92 90 90 90 90 89 91 93 94 93 93 96 101 107 113 116 118 120 121 121 120 118 115 112 109 105 101 97 94 91 89 86 83 80 78 76 73 72 70
189 189 189 188 188 187 184 177 168 154 141 132 128 127 127 128 126 124 123 122 122 119 116 113 108 104 102 100 97 93 90 87 86 87 88 88 88 88 89 89 89 90 93 98 102 106 109 111 113 114 115 114 112 110 108 104 100 97 94 92 90 87 84 81 78 76 74 73 72
Height
701 703 705 707 709 711 713 715 717 719 721 722 724 725 726 727 729 730 733 734 737 739 741 743 746 749 751 753 754 756 758 760 763 766 769 771 773 774 774 773 772 773 775 777 779 781 783 785 787 789 791 792 794 796 797 799 800 802 803 804 805 807 807 808 809 810 810 811 812
701 703 705 707 709 711 713 715 717 719 721 723 724 725 726 727 728 730 732 734 736 738 740 743 745 748 750 752 754 755 757 760 763 765 768 770 773 773 772 771 772 773 774 777 779 781 783 784 787 789 790 792 794 795 797 798 800 801 803 804 805 806 807 808 808 809 809 810 811
702 704 706 708 709 711 713 715 717 719 721 723 724 725 726 727 728 730 732 734 736 738 740 743 745 747 749 751 753 755 757 759 762 765 768 770 771 771 770 770 771 773 774 777 779 780 782 784 786 788 790 792 793 795 796 798 799 801 802 803 804 805 806 807 807 808 809 809 810
702 704 706 708 709 710 712 714 716 719 720 722 724 725 726 727 729 730 732 734 737 739 740 743 745 747 749 751 753 755 757 759 761 764 767 769 769 769 769 770 771 773 775 777 779 780 782 784 786 788 789 791 792 794 795 797 799 800 801 802 803 804 805 806 806 807 808 809 809
703 705 707 708 709 711 712 714 716 718 720 722 724 725 727 728 729 731 733 735 737 739 741 743 745 747 749 751 753 755 757 759 762 764 766 768 768 768 769 769 771 773 775 777 779 780 782 784 786 787 789 790 792 793 794 796 798 799 800 801 802 803 804 804 805 806 807 808 808
704 706 708 709 710 711 713 715 716 718 720 722 724 726 727 729 730 732 734 735 738 740 742 744 745 747 749 751 753 754 757 759 762 764 766 766 766 767 768 769 771 773 775 777 779 780 782 784 785 787 789 789 791 792 794 795 796 798 799 800 801 802 802 803 804 805 806 806 807
704 706 708 709 711 712 714 715 717 719 720 722 724 726 727 729 731 732 734 736 738 740 743 744 746 748 749 751 753 754 757 759 762 764 765 765 766 767 768 769 771 773 775 777 778 780 782 784 785 787 788 789 790 792 793 794 795 797 798 799 799 800 801 802 803 804 804 805 806
705 706 708 709 711 712 714 715 717 719 721 723 725 726 728 729 731 733 734 737 739 741 743 745 746 748 749 750 752 754 757 759 762 764 764 764 765 766 768 769 771 773 774 776 778 779 782 784 785 786 787 789 790 791 792 794 795 796 797 798 798 799 800 801 801 802 803 804 804
705 707 708 710 711 713 714 716 718 719 721 723 725 727 728 729 731 733 735 737 739 741 743 745 746 747 749 750 752 755 758 760 762 763 763 764 765 766 768 769 771 773 774 776 778 779 781 783 784 786 787 788 789 790 791 793 794 795 796 796 797 798 799 799 800 801 802 802 803
705 707 709 710 712 714 715 717 719 720 722 724 725 727 728 729 731 733 734 737 739 741 743 745 746 747 749 750 753 756 759 761 761 762 762 764 765 766 768 769 770 772 774 776 778 779 781 783 784 785 786 787 788 789 790 792 793 794 794 795 796 797 798 798 799 800 800 801 801
706 707 709 711 712 714 715 717 719 721 722 724 725 727 728 729 731 733 735 737 739 741 742 744 745 747 749 751 754 757 759 760 761 761 762 763 764 766 767 769 770 772 773 775 778 779 781 782 783 784 785 786 787 788 789 790 792 793 793 794 795 796 796 797 798 799 799 799 800
707 708 709 711 712 714 715 717 719 720 722 724 725 726 728 730 732 734 735 737 739 740 742 744 745 748 750 753 756 758 759 760 760 761 762 763 764 765 767 768 769 771 773 775 778 780 781 782 782 783 784 785 786 787 788 789 790 791 792 793 794 794 795 796 796 797 798 798 799
707 709 710 711 713 714 715 717 719 720 722 723 725 726 728 730 732 734 735 737 738 740 742 744 746 749 752 754 756 758 759 759 760 760 761 763 764 765 767 768 769 771 774 776 778 779 780 781 781 782 783 784 785 786 787 788 789 790 791 791 792 793 794 794 794 795 796 796 797
708 709 710 712 713 714 716 717 719 720 722 723 725 727 729 730 732 734 735 737 739 740 742 745 748 750 752 754 756 757 758 759 759 760 761 762 764 765 767 768 770 772 774 777 778 779 779 780 780 781 782 783 784 784 785 787 788 788 789 790 791 791 791 792 793 793 794 794 795
708 709 711 712 714 715 716 718 719 720 722 724 725 727 729 731 733 734 736 737 739 741 743 745 748 750 752 754 755 756 757 758 759 760 761 763 764 765 767 769 770 773 775 776 777 778 778 779 779 780 781 782 782 783 784 785 786 787 788 788 789 789 789 790 791 792 792 793 793
709 710 711 713 714 715 717 718 719 721 722 724 725 727 729 731 733 734 736 738 739 742 744 745 748 749 751 753 754 755 757 758 759 760 761 763 764 766 767 769 771 773 774 775 776 777 777 778 778 779 779 780 781 782 783 784 785 785 786 786 787 787 788 788 789 790 790 791 791
709 710 712 713 714 716 717 718 720 721 722 724 725 727 729 730 732 734 736 737 739 741 743 745 747 749 750 752 754 755 756 757 759 760 761 763 764 766 768 769 771 772 773 774 775 775 776 776 777 778 779 779 780 781 782 783 783 784 784 784 785 785 786 786 787 788 789 789 790
709 710 712 713 715 716 717 719 720 721 722 724 725 726 728 730 731 733 735 737 739 740 742 744 746 748 749 751 753 754 755 757 758 760 761 762 764 766 768 769 770 771 772 773 773 774 774 775 776 777 777 778 779 779 780 781 781 782 782 783 783 784 784 785 786 787 787 788 788
709 710 711 713 714 716 717 719 720 721 722 724 725 726 728 729 731 732 734 736 738 740 741 743 745 747 749 750 752 753 754 756 758 759 760 762 764 766 767 768 769 770 770 771 772 772 773 774 774 775 776 776 777 778 778 779 779 780 780 781 781 782 783 784 784 785 786 786 787
708 709 711 713 714 716 717 718 720 721 723 724 725 726 728 729 731 732 734 736 738 739 741 743 744 746 748 749 751 752 754 755 757 758 760 762 764 764 765 766 767 768 769 770 770 771 772 773 773 774 774 774 775 776 776 777 778 778 779 779 780 781 781 782 783 784 784 785 786
708 709 711 712 714 715 717 718 719 721 723 724 725 726 728 729 731 733 734 736 738 739 741 742 744 745 746 748 750 751 753 754 756 757 759 761 762 763 764 764 765 767 768 769 769 770 771 771 772 772 773 773 774 774 775 775 776 777 777 778 779 779 780 781 782 783 783 784 784
707 709 710 712 714 715 716 718 719 721 723 724 725 726 728 729 731 733 734 736 738 739 740 741 742 744 745 747 748 750 752 753 755 757 759 760 760 761 762 763 764 765 766 767 768 768 769 769 770 771 771 772 772 773 773 774 774 775 776 777 777 778 779 780 780 781 782 783 784
707 709 710 712 713 715 716 718 719 721 723 724 725 727 728 729 731 732 734 735 737 738 739 740 741 743 744 745 747 749 750 752 754 756 757 758 759 760 761 762 763 764 764 765 766 766 767 768 768 769 769 770 770 771 771 772 773 774 774 775 776 777 778 779 779 780 781 782 783
707 709 710 712 713 715 716 718 719 721 723 724 725 727 728 729 730 732 733 734 735 736 738 739 741 742 743 745 746 748 749 751 753 755 756 757 758 759 760 761 762 762 762 763 764 764 765 766 766 767 768 768 769 769 769 770 771 771 772 774 774 775 776 777 778 779 780 781 782
707 709 710 712 713 715 716 718 720 721 723 724 725 727 728 729 730 731 732 733 734 736 737 739 740 741 743 744 746 747 749 750 752 753 754 756 757 758 759 759 760 760 761 761 762 763 763 764 764 764 765 766 766 767 767 768 769 770 771 772 773 774 775 776 777 779 779 780 780
707 708 710 711 713 715 717 718 719 721 723 724 725 727 728 729 730 730 731 733 734 735 737 738 739 741 742 744 745 747 748 749 750 752 753 754 755 757 757 758 759 759 760 761 761 761 761 762 762 762 763 764 764 765 766 767 768 769 770 771 773 774 775 776 776 777 778 778 778
706 708 709 711 713 714 716 718 719 721 722 723 724 726 727 728 729 730 731 732 733 734 736 737 739 740 742 743 744 745 747 748 749 750 752 753 754 755 756 757 758 759 759 759 759 759 759 759 760 761 761 762 763 764 765 767 768 769 770 771 772 773 774 774 775 775 776 776 775
705 707 709 710 712 714 715 717 718 720 721 722 724 725 726 727 728 729 730 731 733 734 735 737 738 739 741 742 743 744 745 746 748 749 751 752 753 754 755 756 757 758 757 756 756 757 757 758 759 759 760 761 762 764 764 765 766 767 768 769 770 771 771 772 773 774 774 774 774
704 706 708 709 711 712 714 715 717 718 720 721 723 724 725 726 727 728 729 730 732 733 734 736 737 739 740 741 742 744 745 746 748 749 750 751 753 754 755 756 755 754 754 754 754 754 755 756 757 758 759 759 760 761 762 763 763 764 766 767 768 769 770 771 771 772 772 773 773
703 705 706 708 709 711 713 714 716 717 719 720 721 723 724 725 726 727 729 730 731 733 734 735 737 738 739 740 742 743 745 746 747 749 750 751 752 753 753 752 752 751 751 752 753 754 754 755 756 756 756 757 757 758 759 761 762 763 764 766 767 768 769 770 771 772 772 773 774
702 704 705 707 709 710 711 713 714 716 718 719 720 722 723 724 725 727 728 729 731 732 734 735 737 738 739 740 742 743 745 746 747 749 749 750 750 750 750 750 750 750 750 751 752 753 754 754 754 754 754 755 756 757 759 760 761 763 764 766 767 768 769 770 771 772 773 773 774
701 702 704 705 707 709 710 712 714 715 717 718 719 721 722 724 725 726 728 729 731 733 734 736 737 739 740 741 743 744 746 746 747 748 748 748 749 749 749 749 749 749 749 750 751 752 752 752 752 752 753 754 755 757 758 760 761 763 764 765 767 768 769 770 771 772 773 774 775
699 701 702 704 705 707 709 711 712 714 715 717 719 720 721 723 724 726 728 730 732 733 735 736 737 738 739 739 741 742 742 743 744 744 745 746 747 748 749 749 749 749 749 750 750 750 750 750 750 751 751 753 754 756 758 760 762 764 765 766 768 769 769 770 771 772 774 774 775
698 699 701 702 704 706 707 709 711 713 714 716 717 719 720 722 724 726 728 730 731 732 733 734 734 735 736 737 739 740 741 742 742 743 744 745 746 747 748 749 749 750 750 749 749 749 749 749 749 749 750 752 754 756 758 760 762 765 767 769 770 770 771 772 772 774 774 776 777
696 697 699 701 702 704 706 707 709 711 712 714 716 717 719 721 724 726 727 728 729 730 732 734 734 735 736 737 739 740 740 740 741 742 743 744 745 746 748 749 750 751 750 750 749 749 749 749 749 749 749 751 754 757 759 761 764 766 768 770 772 773 774 774 775 776 777 778 778
694 695 697 699 701 702 704 705 707 709 711 713 714 716 719 721 724 725 726 726 727 729 731 733 734 736 737 738 738 739 740 740 741 742 743 744 745 747 748 750 751 752 752 751 750 750 750 749 749 749 750 751 754 757 759 762 764 767 769 771 773 774 775 776 777 778 779 779 780
692 694 695 697 699 700 702 704 705 707 709 711 713 715 718 721 723 724 724 725 726 729 731 733 734 735 736 738 739 740 741 742 742 743 744 745 746 748 749 750 752 753 753 753 752 752 751 751 751 750 751 752 755 758 760 763 765 768 770 772 774 776 777 778 779 780 781 781 781
690 692 694 695 697 698 700 701 703 705 707 709 712 715 717 719 721 722 723 724 725 728 730 732 734 736 737 739 739 741 742 743 744 745 745 746 748 749 749 750 752 754 754 754 754 754 753 753 753 752 753 754 756 758 761 764 766 769 771 773 775 777 779 780 781 782 783 783 783
689 690 692 693 694 696 698 699 701 703 706 709 712 714 716 717 719 721 723 724 726 728 730 733 735 738 739 740 740 741 742 744 744 745 746 748 749 749 750 751 753 754 755 755 755 754 754 754 754 754 754 755 757 759 762 764 767 769 772 774 776 778 780 781 782 783 784 785 785
687 688 690 691 693 695 697 699 701 704 706 709 711 713 714 716 718 720 722 724 726 728 730 733 737 739 740 740 740 741 743 744 746 747 748 749 750 751 751 752 754 756 757 757 756 756 756 756 756 756 756 757 759 761 763 766 768 771 773 775 777 779 781 783 783 784 785 786 787
685 687 689 690 692 694 697 699 702 705 707 708 710 712 714 715 718 719 721 724 726 729 732 735 738 739 740 741 742 743 744 746 748 749 750 751 752 753 754 754 756 757 758 759 758 758 758 758 758 758 758 759 761 763 765 767 769 772 775 777 779 780 782 784 785 786 787 787 788